timestamp,wind_dir_avg,wind_spd_avg,wind_spd_max_dir,wind_spd_gust,battery_voltage,lat,long
2023-03-11 00:04:00+00:00,321.0,11.68,320.0,15.06,12.33,47.59359,-54.27349
2023-03-11 00:14:00+00:00,319.0,11.05,317.0,13.22,12.33,47.59359,-54.27349
2023-03-11 00:24:00+00:00,321.0,10.53,315.0,13.01,12.33,47.59359,-54.27349
2023-03-11 00:34:00+00:00,323.0,10.13,320.0,13.19,12.33,47.59359,-54.27349
2023-03-11 00:44:00+00:00,316.0,10.34,317.0,12.08,12.33,47.59359,-54.27349
2023-03-11 00:54:00+00:00,315.0,10.28,317.0,12.32,12.33,47.59359,-54.27349
2023-03-11 01:04:00+00:00,314.0,9.48,307.0,11.65,12.33,47.59359,-54.27349
2023-03-11 01:14:00+00:00,322.0,8.15,319.0,9.68,12.25,47.59359,-54.27349
2023-03-11 01:24:00+00:00,319.0,8.97,306.0,11.41,12.25,47.59359,-54.27349
2023-03-11 01:34:00+00:00,314.0,11.29,314.0,12.91,12.25,47.59359,-54.27349
2023-03-11 01:44:00+00:00,314.0,10.73,316.0,12.43,12.25,47.59359,-54.27349
2023-03-11 01:54:00+00:00,316.0,9.71,304.0,11.93,12.25,47.59359,-54.27349
2023-03-11 02:04:00+00:00,317.0,12.16,327.0,15.58,12.25,47.59359,-54.27349
2023-03-11 02:14:00+00:00,318.0,11.44,318.0,12.57,12.25,47.59359,-54.27349
2023-03-11 02:24:00+00:00,326.0,9.64,316.0,12.41,12.25,47.59359,-54.27349
2023-03-11 02:34:00+00:00,325.0,8.82,303.0,10.94,12.25,47.59359,-54.27349
2023-03-11 02:44:00+00:00,319.0,11.43,328.0,13.02,12.25,47.59359,-54.27349
2023-03-11 02:54:00+00:00,315.0,9.54,309.0,11.63,12.25,47.59359,-54.27349
2023-03-11 03:04:00+00:00,319.0,10.06,312.0,11.99,12.25,47.59359,-54.27349
2023-03-11 03:14:00+00:00,324.0,9.5,318.0,13.17,12.25,47.59359,-54.27349
2023-03-11 03:24:00+00:00,324.0,9.18,316.0,11.12,12.25,47.59359,-54.27349
2023-03-11 03:34:00+00:00,323.0,9.76,313.0,11.96,12.25,47.59359,-54.27349
2023-03-11 03:44:00+00:00,319.0,11.89,321.0,15.25,12.25,47.59359,-54.27349
2023-03-11 03:54:00+00:00,321.0,9.97,316.0,11.75,12.25,47.59359,-54.27349
2023-03-11 04:04:00+00:00,317.0,11.93,319.0,13.6,12.25,47.59359,-54.27349
2023-03-11 04:14:00+00:00,319.0,11.46,322.0,13.58,12.17,47.59359,-54.27349
2023-03-11 04:24:00+00:00,318.0,12.4,320.0,14.38,12.17,47.59359,-54.27349
2023-03-11 04:34:00+00:00,319.0,12.64,324.0,14.51,12.17,47.59359,-54.27349
2023-03-11 04:44:00+00:00,317.0,13.13,323.0,14.75,12.17,47.59359,-54.27349
2023-03-11 04:54:00+00:00,316.0,11.27,316.0,12.89,12.17,47.59359,-54.27349
2023-03-11 05:04:00+00:00,319.0,12.42,322.0,14.5,12.17,47.59359,-54.27349
2023-03-11 05:14:00+00:00,317.0,10.95,320.0,12.7,12.17,47.59359,-54.27349
2023-03-11 05:24:00+00:00,320.0,9.41,312.0,12.72,12.17,47.59359,-54.27349
2023-03-11 05:34:00+00:00,323.0,8.36,309.0,11.83,12.17,47.59359,-54.27349
2023-03-11 05:44:00+00:00,314.0,10.8,311.0,12.77,12.17,47.59359,-54.27349
2023-03-11 05:54:00+00:00,317.0,11.77,322.0,13.05,12.17,47.59359,-54.27349
2023-03-11 06:04:00+00:00,316.0,10.59,307.0,12.53,12.17,47.59359,-54.27349
2023-03-11 06:14:00+00:00,315.0,11.78,315.0,12.9,12.17,47.59359,-54.27349
2023-03-11 06:24:00+00:00,315.0,12.23,313.0,13.61,12.17,47.59359,-54.27349
2023-03-11 06:34:00+00:00,319.0,12.57,321.0,13.78,12.17,47.59359,-54.27349
2023-03-11 06:44:00+00:00,315.0,12.15,316.0,13.73,12.17,47.59359,-54.27349
2023-03-11 06:54:00+00:00,313.0,11.27,305.0,12.8,12.17,47.59359,-54.27349
2023-03-11 07:04:00+00:00,321.0,11.78,311.0,13.79,12.17,47.59359,-54.27349
2023-03-11 07:14:00+00:00,319.0,12.39,321.0,13.88,12.09,47.59359,-54.27349
2023-03-11 07:24:00+00:00,325.0,14.45,326.0,17.58,12.09,47.59359,-54.27349
2023-03-11 07:34:00+00:00,336.0,11.98,347.0,15.13,12.09,47.59359,-54.27349
2023-03-11 07:44:00+00:00,320.0,13.13,320.0,15.89,12.09,47.59359,-54.27349
2023-03-11 07:54:00+00:00,320.0,13.22,318.0,15.23,12.09,47.59359,-54.27349
2023-03-11 08:04:00+00:00,330.0,11.96,316.0,14.86,12.09,47.59359,-54.27349
2023-03-11 08:14:00+00:00,321.0,13.59,321.0,15.46,12.09,47.59359,-54.27349
2023-03-11 08:24:00+00:00,337.0,11.54,313.0,13.46,12.09,47.59359,-54.27349
2023-03-11 08:34:00+00:00,330.0,12.43,323.0,15.59,12.09,47.59359,-54.27349
2023-03-11 08:44:00+00:00,334.0,11.93,325.0,16.31,12.09,47.59359,-54.27349
2023-03-11 08:54:00+00:00,338.0,13.69,338.0,15.01,12.09,47.59359,-54.27349
2023-03-11 09:04:00+00:00,340.0,12.45,340.0,14.39,12.09,47.59359,-54.27349
2023-03-11 09:14:00+00:00,333.0,12.89,328.0,16.17,12.09,47.59359,-54.27349
2023-03-11 09:24:00+00:00,342.0,12.15,346.0,14.79,12.09,47.59359,-54.27349
2023-03-11 09:34:00+00:00,337.0,12.52,320.0,15.48,12.09,47.59359,-54.27349
2023-03-11 09:44:00+00:00,343.0,13.1,333.0,15.74,12.09,47.59359,-54.27349
2023-03-11 09:54:00+00:00,346.0,12.07,349.0,13.35,12.09,47.59359,-54.27349
2023-03-11 10:04:00+00:00,343.0,12.01,338.0,14.03,12.09,47.59359,-54.27349
2023-03-11 10:14:00+00:00,342.0,12.98,328.0,16.58,12.09,47.59359,-54.27349
2023-03-11 10:24:00+00:00,353.0,12.48,358.0,14.91,12.09,47.59359,-54.27349
2023-03-11 10:34:00+00:00,354.0,11.87,352.0,12.93,12.09,47.59359,-54.27349
2023-03-11 10:44:00+00:00,353.0,11.24,353.0,12.69,12.09,47.59359,-54.27349
2023-03-11 10:54:00+00:00,348.0,12.04,354.0,13.46,12.09,47.59359,-54.27349
2023-03-11 11:04:00+00:00,350.0,11.16,348.0,12.8,12.09,47.59359,-54.27349
2023-03-11 11:14:00+00:00,351.0,11.32,353.0,12.3,12.17,47.59359,-54.27349
2023-03-11 11:24:00+00:00,347.0,11.59,344.0,12.95,12.17,47.59359,-54.27349
2023-03-11 11:34:00+00:00,349.0,10.64,347.0,12.28,12.17,47.59359,-54.27349
2023-03-11 11:44:00+00:00,352.0,9.57,353.0,11.76,12.17,47.59359,-54.27349
2023-03-11 11:54:00+00:00,356.0,10.19,352.0,11.92,12.17,47.59359,-54.27349
2023-03-11 12:04:00+00:00,359.0,11.18,355.0,12.98,12.17,47.59359,-54.27349
2023-03-11 12:14:00+00:00,359.0,10.76,1.0,12.23,12.89,47.59359,-54.27349
2023-03-11 12:24:00+00:00,357.0,11.18,358.0,13.85,12.89,47.59359,-54.27349
2023-03-11 12:34:00+00:00,0.0,11.13,353.0,12.81,12.89,47.59359,-54.27349
2023-03-11 12:44:00+00:00,0.0,10.8,1.0,13.11,12.89,47.59359,-54.27349
2023-03-11 12:54:00+00:00,357.0,11.96,354.0,13.83,12.89,47.59359,-54.27349
2023-03-11 13:04:00+00:00,10.0,11.75,16.0,13.33,12.89,47.59359,-54.27349
2023-03-11 13:14:00+00:00,9.0,10.74,11.0,12.37,13.53,47.59359,-54.27349
2023-03-11 13:24:00+00:00,11.0,10.36,14.0,12.0,13.53,47.59359,-54.27349
2023-03-11 13:34:00+00:00,16.0,11.14,18.0,12.71,13.53,47.59359,-54.27349
2023-03-11 13:44:00+00:00,15.0,10.46,16.0,12.63,13.53,47.59359,-54.27349
2023-03-11 13:54:00+00:00,18.0,10.53,17.0,12.39,13.53,47.59359,-54.27349
2023-03-11 14:04:00+00:00,13.0,10.58,16.0,12.69,13.53,47.59359,-54.27349
2023-03-11 14:14:00+00:00,17.0,10.4,19.0,11.97,13.44,47.59359,-54.27349
2023-03-11 14:24:00+00:00,9.0,10.7,355.0,14.36,13.44,47.59359,-54.27349
2023-03-11 14:34:00+00:00,18.0,11.44,20.0,13.78,13.44,47.59359,-54.27349
2023-03-11 14:44:00+00:00,20.0,12.01,16.0,14.03,13.44,47.59359,-54.27349
2023-03-11 14:54:00+00:00,20.0,11.59,18.0,13.03,13.44,47.59359,-54.27349
2023-03-11 15:04:00+00:00,14.0,9.99,18.0,12.08,13.44,47.59359,-54.27349
2023-03-11 15:14:00+00:00,20.0,13.34,23.0,15.79,13.68,47.59359,-54.27349
2023-03-11 15:24:00+00:00,15.0,11.99,17.0,14.41,13.68,47.59359,-54.27349
2023-03-11 15:34:00+00:00,18.0,11.35,19.0,13.09,13.68,47.59359,-54.27349
2023-03-11 15:44:00+00:00,17.0,12.77,20.0,15.91,13.68,47.59359,-54.27349
2023-03-11 15:54:00+00:00,14.0,11.67,14.0,14.02,13.68,47.59359,-54.27349
2023-03-11 16:04:00+00:00,17.0,12.17,17.0,13.57,13.68,47.59359,-54.27349
2023-03-11 16:14:00+00:00,18.0,11.94,19.0,14.71,13.68,47.59359,-54.27349
2023-03-11 16:24:00+00:00,17.0,13.08,24.0,15.57,13.68,47.59359,-54.27349
2023-03-11 16:34:00+00:00,17.0,12.43,16.0,13.99,13.68,47.59359,-54.27349
2023-03-11 16:44:00+00:00,16.0,11.94,21.0,13.7,13.68,47.59359,-54.27349
2023-03-11 16:54:00+00:00,18.0,12.42,10.0,14.03,13.68,47.59359,-54.27349
2023-03-11 17:04:00+00:00,18.0,12.86,18.0,15.99,13.68,47.59359,-54.27349
2023-03-11 17:14:00+00:00,19.0,12.86,22.0,14.86,13.68,47.59359,-54.27349
2023-03-11 17:24:00+00:00,15.0,12.04,13.0,14.41,13.68,47.59359,-54.27349
2023-03-11 17:34:00+00:00,15.0,11.64,15.0,13.59,13.68,47.59359,-54.27349
2023-03-11 17:44:00+00:00,17.0,12.94,25.0,15.91,13.68,47.59359,-54.27349
2023-03-11 17:54:00+00:00,15.0,12.72,12.0,15.82,13.68,47.59359,-54.27349
2023-03-11 18:04:00+00:00,17.0,12.39,12.0,14.28,13.68,47.59359,-54.27349
2023-03-11 18:14:01+00:00,16.0,11.55,16.0,14.06,13.68,47.59359,-54.27349
2023-03-11 18:24:01+00:00,18.0,12.11,16.0,13.52,13.68,47.59359,-54.27349
2023-03-11 18:34:01+00:00,18.0,12.27,18.0,13.88,13.68,47.59359,-54.27349
2023-03-11 18:44:01+00:00,20.0,11.77,26.0,14.44,13.68,47.59359,-54.27349
2023-03-11 18:54:01+00:00,17.0,11.72,18.0,13.25,13.68,47.59359,-54.27349
2023-03-11 19:04:01+00:00,18.0,10.7,17.0,12.79,13.68,47.59359,-54.27349
2023-03-11 19:14:00+00:00,19.0,12.02,28.0,15.16,13.53,47.59359,-54.27349
2023-03-11 19:24:00+00:00,17.0,10.82,15.0,12.53,13.53,47.59359,-54.27349
2023-03-11 19:34:00+00:00,17.0,11.21,18.0,12.8,13.53,47.59359,-54.27349
2023-03-11 19:44:00+00:00,19.0,9.94,17.0,13.05,13.53,47.59359,-54.27349
2023-03-11 19:54:00+00:00,18.0,11.95,16.0,13.55,13.53,47.59359,-54.27349
2023-03-11 20:04:00+00:00,16.0,11.22,19.0,13.46,13.53,47.59359,-54.27349
2023-03-11 20:14:00+00:00,18.0,10.47,24.0,12.7,13.53,47.59359,-54.27349
2023-03-11 20:24:00+00:00,21.0,11.89,28.0,13.29,13.53,47.59359,-54.27349
2023-03-11 20:34:00+00:00,16.0,9.68,18.0,11.46,13.53,47.59359,-54.27349
2023-03-11 20:44:00+00:00,13.0,9.13,18.0,10.43,13.53,47.59359,-54.27349
2023-03-11 20:54:00+00:00,17.0,11.05,19.0,13.17,13.53,47.59359,-54.27349
2023-03-11 21:04:00+00:00,18.0,9.32,18.0,10.64,13.53,47.59359,-54.27349
2023-03-11 21:14:00+00:00,18.0,10.96,17.0,12.75,13.05,47.59359,-54.27349
2023-03-11 21:24:00+00:00,16.0,9.52,17.0,11.76,13.05,47.59359,-54.27349
2023-03-11 21:34:00+00:00,7.0,10.31,16.0,13.04,13.05,47.59359,-54.27349
2023-03-11 21:44:00+00:00,11.0,10.56,16.0,12.15,13.05,47.59359,-54.27349
2023-03-11 21:54:00+00:00,7.0,9.92,10.0,14.65,13.05,47.59359,-54.27349
2023-03-11 22:04:00+00:00,9.0,10.58,3.0,11.81,13.05,47.59359,-54.27349
2023-03-11 22:14:00+00:00,11.0,10.25,15.0,11.79,12.49,47.59359,-54.27349
2023-03-11 22:24:00+00:00,11.0,9.66,18.0,11.16,12.49,47.59359,-54.27349
2023-03-11 22:34:00+00:00,13.0,9.43,16.0,10.68,12.49,47.59359,-54.27349
2023-03-11 22:44:00+00:00,17.0,9.76,17.0,11.3,12.49,47.59359,-54.27349
2023-03-11 22:54:00+00:00,17.0,10.3,18.0,11.76,12.49,47.59359,-54.27349
2023-03-11 23:04:00+00:00,18.0,9.13,19.0,10.76,12.49,47.59359,-54.27349
2023-03-11 23:14:00+00:00,16.0,9.6,16.0,11.04,12.33,47.59359,-54.27349
2023-03-11 23:24:00+00:00,17.0,9.94,23.0,11.63,12.33,47.59359,-54.27349
2023-03-11 23:34:00+00:00,20.0,10.82,18.0,11.82,12.33,47.59359,-54.27349
2023-03-11 23:44:00+00:00,19.0,10.08,20.0,11.63,12.33,47.59359,-54.27349
2023-03-11 23:54:00+00:00,21.0,9.49,19.0,11.55,12.33,47.59359,-54.27349
